User: anonymous   Login
Location: Skalnate Pleso
(49.1889°N, 20.2450°E)
Time: 17:57:18
(UTC+02:00)
Language:

Iridium 45 - Orbit

View from above orbital plane
View from above orbital plane
View from above satellite
View from above satellite

Ground track
Ground track

The orbit data is extracted from the following two-line orbital elements,

1 25104U 97082A   15242.40071896  .00000179  00000-0  56776-4 0  9999
2 25104 086.3985 201.7613 0000972 043.1600 316.9672 14.34218689926237
Epoch (UTC): 30 August 2015 09:37:02
Eccentricity: 0.0000972
inclination: 86.3985°
perigee height: 777 km
apogee height: 778 km
right ascension of ascending node: 201.7613°
argument of perigee: 43.1600°
revolutions per day: 14.34218689
mean anomaly at epoch: 316.9672°
orbit number at epoch: 92623

The dashed part of the orbit path shows where the satellite is in the earth's shadow,  

DLR